Location: Georgenberg
(48.1500°N, 16.2500°E)
Time: 04:38:54
(UTC+01:00)

N. Korean satellite - Pass Details

Date: 29 November 2022
Orbit: 407 x 444 km, 97.3° (Epoch: 28 January)

Event Time Altitude Azimuth Distance (km) Brightness Sun altitude
Rises 16:41:23 0° 182° (S) 2,429 10.5 -6.2°
Reaches altitude 10° 16:43:27 10° 189° (S) 1,575 9.7 -6.5°
Maximum altitude 16:46:41 41° 262° (W) 672 8.0 -7.0°
Drops below altitude 10° 16:50:00 10° 334° (NNW) 1,620 9.3 -7.5°
Sets 16:52:09 0° 342° (NNW) 2,509 10.1 -7.8°
